Temp
13 13 13 12 12 11 11 11 11 11 11 11 11 11 12 12 12 12 12 12 12 13
13 13 13 12 12 11 11 11 11 11 11 11 11 12 12 12 12 12 12 12 12 12
13 13 13 13 12 12 11 11 11 11 11 11 12 12 12 11 12 12 12 12 12 13
14 13 13 12 12 12 11 11 11 12 12 12 12 12 12 12 12 12 12 12 13 13
14 13 13 12 12 11 11 11 12 12 12 12 12 12 11 12 12 12 13 12 12 12
14 13 13 12 12 12 11 11 12 12 12 12 12 12 12 12 12 12 12 11 11 11
14 13 13 13 12 12 11 12 12 12 12 12 12 12 12 12 12 12 12 12 11 11
14 14 13 13 13 13 12 12 12 12 12 12 12 12 12 12 12 13 12 11 11 12
14 14 13 14 13 13 13 13 12 12 12 12 12 12 12 12 12 12 12 11 11 11
14 14 14 14 14 13 13 13 13 12 12 12 12 12 12 11 11 12 11 11 11 11
14 14 14 14 14 14 13 13 13 12 12 12 12 12 12 11 11 11 11 11 11 11
14 14 14 14 14 14 14 13 13 12 12 12 12 12 11 11 11 11 11 11 11 11
14 15 14 14 14 14 14 13 13 12 12 12 12 12 11 11 12 12 12 11 11 11
15 14 15 15 14 14 14 13 13 12 13 12 13 13 12 12 12 12 12 12 12 12
Height
1457 1456 1455 1452 1449 1449 1450 1453 1456 1458 1459 1461 1461 1463 1464 1465 1466 1468 1469 1471 1473 1475
1456 1456 1454 1452 1450 1451 1452 1454 1457 1459 1460 1462 1463 1464 1465 1466 1466 1468 1469 1472 1474 1475
1456 1456 1454 1453 1452 1452 1453 1456 1458 1459 1461 1462 1463 1465 1465 1466 1466 1467 1468 1471 1473 1475
1456 1456 1455 1453 1453 1454 1455 1456 1458 1460 1462 1463 1464 1465 1466 1467 1466 1467 1469 1471 1473 1475
1456 1456 1455 1453 1454 1454 1455 1457 1459 1461 1462 1464 1465 1466 1467 1468 1468 1469 1469 1471 1473 1476
1456 1456 1455 1453 1454 1455 1457 1458 1460 1462 1464 1466 1467 1468 1469 1470 1471 1472 1473 1474 1475 1477
1456 1456 1455 1454 1455 1457 1458 1460 1462 1464 1466 1468 1469 1470 1472 1473 1474 1475 1476 1477 1479 1481
1457 1457 1456 1456 1457 1459 1460 1462 1464 1466 1468 1470 1471 1473 1475 1476 1477 1478 1479 1481 1483 1487
1458 1459 1459 1459 1460 1461 1463 1464 1466 1468 1470 1471 1473 1475 1476 1478 1479 1481 1482 1484 1487 1490
1458 1461 1462 1463 1463 1464 1465 1466 1468 1470 1471 1473 1474 1476 1478 1479 1480 1481 1483 1487 1490 1494
1458 1461 1464 1466 1466 1467 1467 1468 1470 1471 1472 1474 1475 1477 1479 1481 1482 1484 1486 1490 1494 1497
1458 1461 1464 1466 1468 1469 1470 1471 1472 1473 1474 1475 1477 1479 1481 1483 1485 1487 1490 1494 1497 1502
1457 1461 1464 1467 1469 1471 1472 1473 1474 1475 1477 1478 1480 1481 1484 1486 1488 1490 1493 1496 1500 1505
1456 1460 1463 1466 1469 1472 1473 1474 1475 1477 1479 1481 1483 1485 1487 1489 1492 1494 1496 1500 1503 1507
Wind_Speed
4 6 7 9 5 3 6 9 10 9 5 5 5 4 3 4 8 6 5 11 13 14
4 6 6 10 7 4 7 9 10 8 5 3 4 2 2 3 4 5 6 8 11 12
2 6 6 7 7 4 7 10 9 7 6 2 3 3 3 3 3 5 7 7 7 8
1 5 4 4 2 3 6 10 9 7 6 3 4 4 5 6 6 6 6 6 7 8
1 3 3 3 3 3 8 9 8 5 6 7 6 7 9 9 9 7 5 6 9 8
1 1 3 3 6 6 7 9 9 7 8 11 10 12 11 10 10 10 10 10 11 11
4 3 4 9 9 9 10 12 11 11 12 11 11 9 11 10 9 9 11 11 12 14
8 5 7 13 13 14 14 12 12 13 13 11 10 10 9 11 9 9 11 12 15 15
9 7 10 14 14 13 12 12 11 10 10 10 10 9 8 5 2 5 8 13 17 15
13 11 11 14 14 12 10 11 11 9 8 9 10 11 11 6 6 8 12 17 20 22
16 12 11 12 12 12 10 11 10 8 9 10 13 13 12 11 13 11 14 19 23 21
17 13 14 10 10 9 8 10 9 7 8 10 15 15 11 12 12 15 18 20 18 19
19 16 14 11 10 8 6 8 8 8 8 9 15 16 14 13 15 17 18 21 22 23
21 18 15 13 11 10 6 7 8 10 11 13 14 16 15 15 14 18 20 23 22 21
Wind_Direction
4 1 352 359 17 97 143 163 166 159 144 153 119 110 116 176 191 194 231 201 199 218
42 15 17 27 32 116 144 161 169 165 166 156 159 135 116 158 201 227 210 197 198 207
17 18 35 41 46 95 149 163 170 171 175 131 136 131 134 155 181 179 183 189 189 199
18 14 23 32 71 100 149 162 163 169 183 167 133 121 112 116 102 125 144 153 150 143
190 5 14 25 121 106 157 161 165 171 164 143 123 107 99 94 91 94 109 146 159 160
161 43 21 72 127 123 134 150 152 140 136 131 117 107 98 97 102 99 93 103 118 130
116 85 54 115 124 130 129 132 132 129 133 135 128 110 104 104 105 97 95 102 112 115
138 91 90 117 120 122 124 126 128 125 130 132 133 135 117 114 107 93 96 110 118 117
148 108 109 119 115 120 123 125 128 126 122 130 136 142 147 147 107 136 125 131 134 135
159 127 119 122 112 114 130 138 133 130 130 143 137 140 136 117 128 132 136 141 139 139
169 160 135 131 117 101 120 140 142 131 127 144 150 146 133 126 124 119 132 141 145 142
182 181 177 165 144 113 97 135 141 139 125 140 145 140 139 139 128 125 132 147 145 155
186 183 180 173 174 155 102 132 136 140 134 131 151 142 139 141 139 137 136 139 139 140
191 188 185 182 180 171 151 141 137 136 139 137 138 136 137 149 146 147 142 143 146 144